AO-07 1 07530U 74089B 19107.85188025 -.00000040 00000-0 29104-4 0 9993 2 07530 101.7379 076.1628 0012509 105.6518 283.6627 12.53637723032534 UO-11 1 14781U 84021B 19108.64113346 .00000073 00000-0 15091-4 0 9993 2 14781 97.6168 136.2279 0009224 151.4816 208.6905 14.83077251889714 LO-19 1 20442U 90005G 19107.87201972 -.00000006 00000-0 14250-4 0 9993 2 20442 098.6437 049.9932 0011336 337.2451 022.8229 14.32922289527467 HUBBLE 1 20580U 90037B 19107.86332133 .00000489 00000-0 18871-4 0 9991 2 20580 028.4691 260.7706 0002664 175.3495 318.5478 15.09208392391544 MET-2/21 1 22782U 93055A 19107.79315292 .00000038 00000-0 20965-4 0 9996 2 22782 082.5519 212.1832 0021919 355.5623 117.8327 13.83818585294030 AO-27 1 22825U 93061C 19107.92915207 -.00000013 00000-0 12867-4 0 9994 2 22825 098.9002 095.1680 0008487 171.5284 188.6042 14.30055828332859 IO-26 1 22826U 93061D 19108.57476213 -.00000008 00000-0 14673-4 0 9997 2 22826 98.8944 95.8272 0009243 159.3824 200.7732 14.30389238333413 FO-29 1 24278U 96046B 19107.95521067 .00000002 00000-0 36383-4 0 9990 2 24278 098.5282 269.7673 0350965 040.2768 322.3815 13.53090423119201 NOAA-15 1 25338U 98030A 19107.94710033 .00000033 00000-0 32364-4 0 9994 2 25338 098.7521 129.3084 0011458 065.8454 294.3922 14.25902567088191 GO-32 1 25397U 98043D 19108.75616202 -.00000022 00000-0 97817-5 0 9990 2 25397 98.6843 49.6549 0001079 157.3168 202.8058 14.23663629 79206 ISS 1 25544U 98067A 19109.01421010 .00001710 00000-0 34826-4 0 9995 2 25544 51.6427 295.3435 0001451 191.4613 273.6932 15.52568456166062 NO-44 1 26931U 01043C 19107.55650573 -.00000022 00000-0 23511-4 0 9994 2 26931 067.0504 164.0195 0005904 278.1255 081.9177 14.30538503916088 SO-50 1 27607U 02058C 19107.80354080 -.00000017 00000-0 18466-4 0 9991 2 27607 064.5547 238.8082 0082389 268.3096 090.8568 14.75536374877777 CO-55 1 27844U 03031E 19107.95204031 .00000056 00000-0 44911-4 0 9998 2 27844 098.6861 117.0833 0009327 203.3183 156.7572 14.22170624819470 CO-57 1 27848U 03031J 19107.92661833 .00000040 00000-0 38249-4 0 9996 2 27848 098.6939 117.5444 0008997 215.3614 144.6968 14.21766745819331 RS-22 1 27939U 03042A 19108.72049768 .00000144 00000-0 34370-4 0 9991 2 27939 98.0289 245.7613 0011456 258.3846 101.6079 14.66770629831609 NOAA-18 1 28654U 05018A 19107.93501034 .00000067 00000-0 61320-4 0 9991 2 28654 099.1035 153.9564 0013958 355.7666 004.3385 14.12416628716700 CO-58 1 28895U 05043F 19107.91344664 .00000119 00000-0 31633-4 0 9990 2 28895 097.9489 252.7964 0016852 182.0689 178.0447 14.63649621718213 Falconsat-3 1 30776U 07006E 19107.48824167 .00002288 00000-0 65345-4 0 9991 2 30776 035.4346 127.5906 0003668 266.6879 093.3428 15.35917091671113 CO-65 1 32785U 08021C 19107.83159547 .00000204 00000-0 27598-4 0 9997 2 32785 097.5497 110.4659 0014633 106.3729 253.9098 14.88279954594415 AAUSAT2 1 32788U 08021F 19108.72974602 .00000837 00000-0 82069-4 0 9992 2 32788 97.5010 127.1479 0013030 50.4440 309.7930 14.94664599595813 DO-64 1 32789U 08021G 19107.92860788 .00000941 00000-0 67162-4 0 9996 2 32789 097.4712 159.4411 0011433 344.7374 015.3508 15.06806573597565 CO-66 1 32791U 08021J 19108.55795879 .00000379 00000-0 43812-4 0 9998 2 32791 97.5297 117.0632 0015041 82.7361 277.5567 14.90777872595001 RS-30 1 32953U 08025A 19108.71815270 .00000020 00000-0 75656-4 0 9992 2 32953 82.5060 182.6808 0017968 261.2299 98.6746 12.43088877494735 PRISM 1 33493U 09002B 19108.75448051 .00000101 00000-0 14469-4 0 9996 2 33493 98.1225 27.4000 0015965 28.8182 331.3917 14.96583734556035 NOAA-19 1 33591U 09005A 19107.91408920 .00000049 00000-0 51663-4 0 9994 2 33591 099.1776 097.5521 0013786 187.6954 172.4007 14.12345101524921 TISAT-1 1 36799U 10035E 19107.60877238 .00000328 00000-0 39283-4 0 9994 2 36799 098.1466 257.7354 0010923 291.7163 068.2891 14.91054791475312 JUGNU 1 37839U 11058B 19107.93746056 .00000329 00000-0 33640-4 0 9997 2 37839 019.9622 349.2611 0018857 006.5328 099.8695 14.12647667388403 SRMSAT 1 37841U 11058D 19107.96046088 .00000307 00000-0 23752-4 0 9990 2 37841 019.9728 044.6159 0011767 237.8530 186.7636 14.10629058387876 AO-71 1 37854U 11061E 19107.85394197 .00000879 00000-0 53063-4 0 9995 2 37854 101.7103 334.3087 0161050 249.5006 108.8857 15.06269246407682 HRBE 1 37855U 11061F 19107.58604868 .00000755 00000-0 46136-4 0 9991 2 37855 101.7236 331.2827 0173856 260.9031 097.2474 15.05271340406963 ALMASAT-1 1 38078U 12006B 19108.84849169 .00059847 49082-5 36510-3 0 9992 2 38078 69.4257 80.0171 0175411 356.3898 83.5031 15.59062466387999 HORYU-2 1 38340U 12025D 19107.87314580 .00000169 00000-0 32749-4 0 9997 2 38340 098.3360 144.5862 0010590 326.6833 033.3707 14.75693199372048 RS-40 1 38735U 12041C 19108.75696323 .00000029 00000-0 13737-3 0 9999 2 38735 82.4715 266.0738 0017118 11.3768 348.7697 12.42578234304987 BEESAT-3 1 39135U 13015F 19107.85624372 .00000986 00000-0 58985-4 0 9998 2 39135 064.8664 238.1907 0012167 317.3390 042.6790 15.17329741330475 BEESAT-2 1 39136U 13015G 19107.87034069 .00001040 00000-0 62568-4 0 9993 2 39136 064.8684 241.7765 0013211 310.3848 049.6123 15.16771573330405 ZACUBE-1 1 39417U 13066B 19108.69919220 .00000188 00000-0 30155-4 0 9992 2 39417 97.5663 125.6179 0057727 233.0378 126.5542 14.81085350292011 TRITON-1 1 39427U 13066M 19108.51208088 .00000231 00000-0 44802-4 0 9990 2 39427 97.6714 89.6883 0113999 2.1859 357.9822 14.67811525289364 GOMX-1 1 39430U 13066Q 19108.87002515 .00000238 00000-0 51539-4 0 9992 2 39430 97.7400 69.4544 0152902 85.9144 275.9522 14.59222769287736 LO-74 1 39440U 13066AA 19108.52791795 .00000191 00000-0 33833-4 0 9995 2 39440 97.6022 110.5783 0078733 283.9611 75.2854 14.75824930290950 AO-73 1 39444U 13066AE 19107.92303261 .00000229 00000-0 34635-4 0 9992 2 39444 097.5649 126.7687 0056897 229.6130 130.0111 14.81897055290197 SPROUT 1 39770U 14029E 19108.81294690 .00000815 00000-0 96534-4 0 9995 2 39770 97.8784 212.5272 0007962 290.9611 69.0734 14.87261783265788 DUCHIFAT-1 1 40021U 14033M 19107.78607062 .00000386 00000-0 45292-4 0 9995 2 40021 097.9232 032.1815 0011410 253.2625 106.7341 14.90577140262328 NANOSATCBR1 1 40024U 14033Q 19107.78037738 .00000325 00000-0 39841-4 0 9991 2 40024 097.9136 029.7526 0010717 256.8937 103.1085 14.89798503261702 EO-79 1 40025U 14033R 19108.74630768 .00000223 00000-0 29726-4 0 9999 2 40025 97.9065 28.5285 0010984 259.4227 100.5753 14.88905421262252 DTUSAT-2 1 40030U 14033W 19108.72576234 .00000234 00000-0 31205-4 0 9997 2 40030 97.8989 26.7680 0010460 254.4071 105.5991 14.88501704262189 EO-80 1 40032U 14033Y 19108.72893696 .00000238 00000-0 31726-4 0 9995 2 40032 97.8996 26.7723 0010416 255.0879 104.9184 14.88442821262171 ANTELSAT 1 40034U 14033AA 19108.61354163 .00000191 00000-0 35980-4 0 9990 2 40034 97.7699 338.3543 0057446 294.2953 65.2263 14.74073765259676 VELOX-1 1 40057U 14034E 19108.80013719 .00000366 00000-0 58758-4 0 9998 2 40057 98.2247 230.6083 0012448 72.6793 287.5776 14.77626858258770 DAURIA DX 1 1 40071U 14037C 19108.75924363 .00000139 00000-0 25335-4 0 9990 2 40071 98.4158 259.5653 0009829 65.0584 295.1653 14.81253424258235 UKUBE-1 1 40074U 14037F 19108.81316387 .00000366 00000-0 51185-4 0 9995 2 40074 98.4287 267.3435 0006189 57.6093 302.5725 14.84010575258621 HODOYOSHI-1 1 40299U 14070B 19108.82459843 .00000623 00000-0 29179-4 0 9991 2 40299 97.3501 189.8411 0010956 254.0558 222.6400 15.23289392247006 CHUBUSAT-1 1 40300U 14070C 19108.85170382 .00000715 00000-0 34211-4 0 9990 2 40300 97.3312 184.5667 0018722 270.5028 201.1408 15.21999186246767 QSAT-EOS 1 40301U 14070D 19108.78488190 .00001683 00000-0 68358-4 0 9996 2 40301 97.3286 187.1969 0024093 253.6599 221.0007 15.25719070247005 FIREBIRD FU3 1 40377U 15003B 19108.60717335 .00002007 00000-0 83336-4 0 9997 2 40377 99.1078 76.3740 0126585 294.2532 64.5514 15.18563839232650 FIREBIRD FU4 1 40378U 15003C 19108.66046705 .00002098 00000-0 86827-4 0 9998 2 40378 99.1081 76.5113 0126791 293.9540 64.8453 15.18569314232665 GRIFEX 1 40379U 15003D 19108.58539310 .00001699 00000-0 76610-4 0 9994 2 40379 99.1066 70.8643 0134900 311.7242 47.2510 15.15314923232337 NO-84 1 40654U 15025D 19108.50792219 .00007118 00000-0 10452-3 0 05927 2 40654 054.9878 091.6271 0141518 167.6482 192.8054 15.46105009102982 NO-83 1 40655U 15025E 19108.26967163 .00036267 00000-0 22145-3 0 07070 2 40655 054.9710 350.6485 0064543 226.6530 132.9124 15.74107050104035 DEORBITSAIL 1 40719U 15032E 19107.92769940 .00000371 00000-0 60184-4 0 9990 2 40719 097.9155 000.9857 0017088 140.8862 219.3587 14.76686828203142 NUDT-PHONESAT 1 40900U 15049B 19108.78879429 .00002469 00000-0 10925-3 0 9996 2 40900 97.4394 118.7306 0014690 43.7671 43.1028 15.22533910198394 XW-2A 1 40903U 15049E 19108.89968637 .00002050 00000-0 50641-4 0 9997 2 40903 97.3457 151.3058 0014268 14.0644 85.5891 15.41614693200880 XW-2C 1 40906U 15049H 19108.73551693 .00000971 00000-0 54501-4 0 9992 2 40906 97.4677 111.8308 0016711 53.9414 64.0323 15.15593487197761 XW-2D 1 40907U 15049J 19108.71490253 .00000835 00000-0 47111-4 0 9993 2 40907 97.4657 111.4893 0015829 53.2686 33.9361 15.15773702197776 LILACSAT-2 1 40908U 15049K 19108.78255758 .00000280 00000-0 19097-4 0 9996 2 40908 97.4782 110.5002 0017549 57.7207 47.3094 15.13751133197591 XW-2E 1 40909U 15049L 19108.78772477 .00001275 00000-0 66557-4 0 9997 2 40909 97.4607 114.2198 0015291 49.5106 37.1926 15.17649182197959 XW-2F 1 40910U 15049M 19108.73344493 .00001397 00000-0 73559-4 0 9992 2 40910 97.4627 113.3728 0016402 46.1651 40.6185 15.17164731197773 XW-2B 1 40911U 15049N 19108.74855693 .00000888 00000-0 49960-4 0 9996 2 40911 97.4674 112.1544 0015879 52.6285 55.0406 15.15706177197670 DCBB 1 40912U 15049P 19108.79080056 .00001432 00000-0 70614-4 0 9991 2 40912 97.4511 116.9384 0015953 32.1119 54.2538 15.19459066198064 TW-1C 1 40926U 15051B 19108.84699318 .00011747 00000-0 18024-3 0 9998 2 40926 97.1433 155.1333 0007073 224.6233 253.3536 15.54420124200704 TW-1A 1 40928U 15051D 19108.83107880 .00003252 00000-0 82356-4 0 9999 2 40928 97.1526 141.4785 0009503 301.0149 168.7367 15.40404940199806 IO-86 1 40931U 15052B 19107.54696041 .00000517 00000-0 -17048-4 0 9991 2 40931 005.9943 140.0378 0012865 007.0208 352.9990 14.76601309192063 LQSat 1 40958U 15057A 19108.83787091 .00000010 00000-0 92240-5 0 9999 2 40958 97.9025 179.6636 0019796 77.5514 282.7900 14.73073549189840 AO-85 1 40967U 15058D 19108.27026269 .00000038 00000-0 22441-4 0 06601 2 40967 064.7785 344.8966 0206348 221.9688 136.5408 14.75912505098670 ATHENOXAT-1 1 41168U 15077C 19104.00308039 .00002445 00000-0 95195-4 0 9996 2 41168 14.9891 337.4313 0011733 260.2900 99.6095 15.13484511184017 ChubuSat-2 1 41338U 16012B 19107.61133463 .00000338 00000-0 19549-4 0 9990 2 41338 031.0022 179.2902 0013759 208.6709 151.3170 15.00125102173585 ChubuSat-3 1 41339U 16012C 19108.45302445 .00000325 00000-0 18449-4 0 9996 2 41339 31.0094 172.1193 0013280 224.7623 135.1958 15.00302859173706 Horyu-4 1 41340U 16012D 19107.53719205 .00000499 00000-0 31165-4 0 9994 2 41340 031.0041 169.9376 0013985 232.7660 127.1700 15.01220996173662 OUFTI-1 1 41458U 16025C 19108.78243598 .00002243 00000-0 11822-3 0 9999 2 41458 98.1002 192.5424 0166640 201.5010 157.9160 15.05582729163411 e-st@r-II 1 41459U 16025D 19108.78467559 .00001717 00000-0 92151-4 0 9995 2 41459 98.1006 192.2453 0167818 202.6956 156.6787 15.05238388163380 AAUSAT4 1 41460U 16025E 19108.76845859 .00003682 00000-0 18830-3 0 9992 2 41460 98.0985 193.3209 0158616 195.9143 163.7073 15.07045639163492 LO-87 1 41557U 16033B 19108.71342548 .00001405 00000-0 55601-4 0 9999 2 41557 97.4175 196.5769 0014853 148.0023 212.2121 15.27049832160783 NuSat2 1 41558U 16033C 19108.75833678 .00001401 00000-0 52413-4 0 9997 2 41558 97.4199 197.4713 0013851 148.8533 211.3530 15.28950481160821 Lapan A3 1 41603U 16040E 19108.80900006 .00000241 00000-0 14452-4 0 9994 2 41603 97.3671 169.0029 0011720 249.3377 221.4552 15.19692811156491 Swayam 1 41607U 16040J 19108.63662373 .00001376 00000-0 61221-4 0 9997 2 41607 97.3714 171.8087 0012001 242.3261 117.6758 15.23108297156585 Pratham 1 41783U 16059A 19107.70279661 .00000055 00000-0 20040-4 0 9990 2 41783 098.0738 168.6328 0032833 216.9735 142.9204 14.62984019136484 AlSat 1N 1 41789U 16059G 19108.83765459 .00000096 00000-0 27321-4 0 9990 2 41789 98.0753 171.6066 0027778 202.4586 157.5385 14.64230628136749 ScatSat 1 41790U 16059H 19107.92812997 -.00000001 00000-0 10894-4 0 9995 2 41790 098.2166 154.4739 0017091 234.0365 125.9245 14.50874731135376 TY-1 1 41844U 16066D 19108.78029007 .00001844 00000-0 78442-4 0 9998 2 41844 97.4063 116.8746 0016838 46.8556 61.6134 15.24161006135416 Pegasus-1 1 41846U 16066F 19107.93374896 .00000310 00000-0 56598-4 0 9990 2 41846 098.7186 147.1240 0368614 062.0903 301.7099 14.37532884127689 CAS-2T 1 41847U 16066G 19107.75175263 .00000076 00000-0 21312-4 0 9993 2 41847 098.7133 147.4641 0366937 059.3171 304.3639 14.37973437128090 EO-88 1 42017U 17008BX 19107.90486947 .00001580 00000-0 65524-4 0 9995 2 42017 097.4081 175.6250 0007131 040.4302 319.7465 15.25338839120506 PHOENIX 1 42706U 98067LP 19108.55099293 .00246093 37155-4 42357-3 0 9993 2 42706 51.6215 217.4558 0009117 333.2218 26.8320 16.01831589110143 ZA-AeroSat 1 42713U 98067LU 19108.56474459 .00124765 17206-4 33044-3 0 9992 2 42713 51.6287 224.4771 0006758 320.5326 39.5189 15.94426178109712 NJUST-1 1 42722U 98067MB 19108.57568944 .00088903 00000-0 33017-3 0 9999 2 42722 51.6363 231.2662 0005303 316.0056 134.8640 15.87301156108694 nSIGHT1 1 42726U 98067MF 19108.67632351 .00018692 00000-0 16331-3 0 9996 2 42726 51.6364 260.2746 0005232 298.9514 61.0958 15.68978132108238 Aoxiang-1 1 42735U 98067MQ 19108.62970041 .00096690 14527-4 32745-3 0 9996 2 42735 51.6278 228.4431 0006393 324.6925 134.8711 15.89863595109866 BeEagleSat 1 42736U 98067MR 19108.49445656 .00620641 21949-3 56506-3 0 9996 2 42736 51.6289 216.8404 0011105 334.0575 108.9970 16.11775473108695 CAS-4B 1 42759U 17034B 19108.46674631 .00000404 00000-0 38252-4 0 9990 2 42759 43.0178 207.0309 0011310 232.7529 227.8918 15.09541931101589 CAS-4A 1 42761U 17034D 19108.49220914 .00000219 00000-0 26902-4 0 9990 2 42761 43.0175 206.4670 0011769 233.3274 189.4097 15.09617220101581 UCLSat 1 42765U 17036A 19107.89511061 .00001320 00000-0 59679-4 0 9996 2 42765 097.3576 167.2087 0013295 088.1896 272.0863 15.22589628101653 NIUSat 1 42766U 17036B 19107.73091210 .00000992 00000-0 47688-4 0 9990 2 42766 097.3576 165.6238 0017451 079.4650 280.8551 15.20980842100812 LituanicaSAT 2 1 42768U 17036D 19107.93972090 .00002231 00000-0 98817-4 0 9996 2 42768 097.3609 166.8261 0016956 079.6194 280.6953 15.22541964100919 Aalto 1 1 42775U 17036L 19107.70147423 .00000798 00000-0 38700-4 0 9994 2 42775 097.3564 165.9083 0015735 079.7202 280.5808 15.21231875100783 URSA MAIOR 1 42776U 17036M 19107.93053939 .00000928 00000-0 44377-4 0 9990 2 42776 097.3571 166.2601 0015567 078.9390 281.3596 15.21357030100824 Max Valier Sat 1 42778U 17036P 19107.92355006 .00001038 00000-0 48517-4 0 9994 2 42778 097.3609 166.9322 0014212 083.2688 277.0165 15.21889942100848 Pegasus 1 42784U 17036V 19107.77791606 .00001153 00000-0 52898-4 0 9999 2 42784 097.3580 166.9350 0013872 088.8387 271.4439 15.22344435100848 NUDATSat 1 42787U 17036Y 19108.86449791 .00002052 00000-0 89447-4 0 9997 2 42787 97.3617 168.5800 0013285 78.3974 281.8766 15.23236497100885 SUCHAI 1 1 42788U 17036Z 19108.72131050 .00001380 00000-0 62017-4 0 9996 2 42788 97.3582 168.1168 0013442 85.5096 274.7676 15.22735101101078 SKCUBE 1 42789U 17036AA 19107.74754811 .00001243 00000-0 56307-4 0 9997 2 42789 097.3581 167.1179 0013315 088.5385 271.7377 15.22643300100840 VZLUSAT 1 1 42790U 17036AB 19107.86600132 .00001820 00000-0 79669-4 0 9995 2 42790 097.3594 167.6032 0012916 087.9629 272.3087 15.23240664100885 VENTA 1 1 42791U 17036AC 19107.91951979 .00001256 00000-0 56843-4 0 9992 2 42791 097.3579 167.3372 0012954 088.5626 271.7094 15.22667373100867 Robusta 1B 1 42792U 17036AD 19107.88218813 .00001355 00000-0 60833-4 0 9996 2 42792 097.3581 167.3813 0012885 088.8638 271.4075 15.22807506100882 D-SAT 1 42794U 17036AF 19107.80048829 .00000333 00000-0 34471-4 0 9992 2 42794 097.5471 155.1992 0126259 348.6744 011.1638 14.91061139099119 BIRD-J 1 42820U 98067MU 19108.50454830 .00373102 75605-4 50091-3 0 9995 2 42820 51.6241 222.4174 0009962 328.5403 31.5012 16.05849503102084 BIRD-G 1 42821U 98067MV 19108.52521688 .00158815 21196-4 37457-3 0 9993 2 42821 51.6212 227.0797 0007218 320.9242 39.1244 15.96451134102005 BIRD-M 1 42822U 98067MW 19108.51971865 .00233975 34298-4 42771-3 0 9992 2 42822 51.6263 224.8538 0008850 325.3269 34.7163 16.00818339102035 BIRD-B 1 42823U 98067MX 19108.55710467 .00286040 47217-4 44693-3 0 9997 2 42823 51.6229 223.5554 0009911 324.5560 35.4792 16.03410532102050 BIRD-N 1 42824U 98067MY 19108.58005813 .00206944 29018-4 39953-3 0 9990 2 42824 51.6267 225.3284 0009203 322.2471 37.7892 15.99898179102027 TechnoSat 1 42829U 17042E 19108.67366664 .00000110 00000-0 16574-4 0 9991 2 42829 97.5709 4.0687 0012702 262.7669 97.2106 14.90949094 95849 TOMSK-TPU 120 1 42910U 98067MZ 19108.66433528 .00047992 00000-0 27203-3 0 9990 2 42910 51.6351 246.1341 0005228 289.0806 167.8594 15.78542245 95377 TANYUSHA 1 1 42911U 98067NA 19108.64817686 .00083971 00000-0 34707-3 0 9994 2 42911 51.6264 239.1750 0005870 299.2824 158.2354 15.85116647 95440 TANYUSHA 2 1 42912U 98067NB 19108.89421505 .00065317 00000-0 31478-3 0 9999 2 42912 51.6357 241.7688 0005012 303.6719 139.4166 15.81970566 95451 TNS 0-2 1 42914U 98067ND 19108.64053623 .00040907 00000-0 22948-3 0 9996 2 42914 51.6353 247.0258 0005431 294.6361 65.4074 15.78843880 95357 QIKCOM-1 1 42983U 98067NF 19108.72950143 .00003450 00000-0 50968-4 0 9990 2 42983 51.6389 286.1936 0003658 253.8564 106.2026 15.58414168 83832 AO-91 1 43017U 17073E 19108.75686806 .00000952 00000-0 79814-4 0 9997 2 43017 97.7230 32.4973 0258504 357.1966 2.7781 14.78482151 76250 EcAMSat 1 43019U 98067NG 19108.72244683 .00005743 00000-0 74463-4 0 9999 2 43019 51.6396 282.4313 0004433 233.5920 126.4664 15.60509736166206 PICSAT 1 43132U 18004X 19107.76638208 .00001348 00000-0 59598-4 0 9990 2 43132 097.4934 175.6940 0011457 109.5696 250.6779 15.23402005070079 AO-92 1 43137U 18004AC 19107.75424916 .00001015 00000-0 45721-4 0 9997 2 43137 097.4926 175.6820 0010959 110.8788 249.3623 15.23328665070066 TianYi 2 1 43155U 18008A 19108.82342431 .00000993 00000-0 63046-4 0 9995 2 43155 97.4903 182.6358 0018238 168.7254 286.0201 15.11036782 68636 Zhou Enlai 1 43156U 18008B 19108.85330257 .00000714 00000-0 47051-4 0 9991 2 43156 97.4946 182.5717 0015662 164.9835 305.4747 15.10534990 68615 TianYi 6 1 43158U 18008D 19108.81875686 .00001142 00000-0 73760-4 0 9991 2 43158 97.4882 182.0882 0013815 165.8082 319.2033 15.10147004 68578 S-Net G 1 43186U 18014G 19108.71747496 -.00000229 00000-0 -15037-4 0 9995 2 43186 97.7134 18.0466 0010166 202.8939 157.1831 14.96616484 66015 S-Net H 1 43187U 18014H 19107.78128234 -.00000096 00000-0 -32921-5 0 9999 2 43187 097.7134 017.1137 0010076 205.9069 154.1649 14.96616606065872 S-Net J 1 43188U 18014J 19108.71708559 -.00000221 00000-0 -14276-4 0 9990 2 43188 97.7135 18.0509 0010165 202.8905 157.1864 14.96616423 66017 S-Net K 1 43189U 18014K 19108.71741115 -.00000228 00000-0 -14940-4 0 9991 2 43189 97.7133 18.0343 0010160 202.8604 157.2167 14.96616088 64565 FMN 1 1 43192U 18015A 19107.94812982 .00002818 00000-0 11876-3 0 9990 2 43192 097.3891 236.5269 0017350 146.1373 214.0971 15.24024383066910 Shaonian Xing 1 43199U 18015H 19107.91545750 .00001992 00000-0 83355-4 0 9994 2 43199 097.3671 235.7454 0017859 157.5136 202.6857 15.24598676066958 1KUNS-PF 1 43466U 98067NP 19108.74597131 .00017957 00000-0 19173-3 0 9992 2 43466 51.6370 283.2944 0000994 230.3567 129.7340 15.63998235 53372 UBAKUSAT 1 43467U 98067NQ 19108.70338955 .00011572 00000-0 13870-3 0 9991 2 43467 51.6366 286.0046 0002626 195.3062 164.7852 15.61433794 53342 Irazu 1 43468U 98067NR 19107.87259308 .00025765 00000-0 25175-3 0 9993 2 43468 051.6364 285.7008 0001219 232.7472 127.3413 15.65990958153256 EnduroSat One 1 43551U 98067NZ 19107.88722089 .00014843 00000-0 17803-3 0 9992 2 43551 051.6375 292.5500 0005725 268.7040 091.3298 15.61142994043412 EQUISat 1 43552U 98067PA 19107.88937321 .00012179 00000-0 15234-3 0 9996 2 43552 051.6386 293.3249 0005975 268.8309 091.2000 15.60240801043369 UiTMSat 1 1 43589U 98067PD 19107.89344342 .00013484 00000-0 16836-3 0 9991 2 43589 051.6359 294.0706 0005258 276.0714 083.9680 15.60180812039092 Maya 1 1 43590U 98067PE 19107.88934833 .00013310 00000-0 16614-3 0 9994 2 43590 051.6364 294.0446 0005379 277.7868 082.2515 15.60202266039023 Bhutan 1 1 43591U 98067PF 19107.94622998 .00013473 00000-0 16774-3 0 9995 2 43591 051.6376 293.6872 0005471 278.7719 081.2654 15.60256606039035 SiriusSat 1 1 43595U 98067PG 19108.73613862 .00011240 00000-0 14466-3 0 9993 2 43595 51.6360 290.6988 0003587 233.8637 126.2024 15.59585359 38324 SiriusSat 2 1 43596U 98067PH 19107.92708630 .00013492 00000-0 17350-3 0 9998 2 43596 051.6372 295.0719 0004189 231.2863 128.7756 15.59402353038197 Tanusha-3 1 43597U 98067PJ 19107.91325472 .00017211 00000-0 21025-3 0 9994 2 43597 051.6359 294.1826 0003680 244.9961 115.0650 15.60538186038207 SurfSat 1 43614U 18070B 19108.60765234 .00002222 00000-0 60928-4 0 9993 2 43614 93.0295 338.4728 0016344 171.7376 188.4150 15.37249175 33022 CP-7 DAVE 1 43615U 18070C 19107.89451883 .00002232 00000-0 61327-4 0 9991 2 43615 093.0303 338.1803 0016334 174.1744 185.9702 15.37187764032916 ELFIN-B 1 43616U 18070D 19107.85950315 .00003445 00000-0 93012-4 0 9995 2 43616 093.0266 338.0890 0016961 178.2943 181.8372 15.37676962032913 ELFIN-A 1 43617U 18070E 19108.63571853 .00002996 00000-0 80854-4 0 9999 2 43617 93.0319 338.5772 0016371 171.7814 188.3711 15.37713886 33037 STARS-Me Mother 1 43640U 98067PQ 19107.91457818 .00009024 00000-0 12682-3 0 9995 2 43640 051.6378 297.2297 0005515 221.0169 139.0409 15.57502921030099 CubeBel 1 1 43666U 18083E 19108.75925212 .00001111 00000-0 58791-4 0 9995 2 43666 97.5258 133.6426 0016441 45.8019 47.8310 15.17445311 26048 Changshagaoxin 1 43669U 18083H 19107.96704927 .00001009 00000-0 54887-4 0 9996 2 43669 097.5116 132.3469 0012063 042.1214 318.0944 15.16692184025877 Ten-Koh 1 43677U 18084G 19107.84610412 -.00000432 00000-0 -38707-4 0 9992 2 43677 097.8422 222.0106 0017326 123.2880 236.9997 14.90144622025406 PO-101 1 43678U 18084H 19108.82610166 .00000509 00000-0 56411-4 0 9993 2 43678 97.8425 223.3657 0011064 137.9021 222.3039 14.91545328 25570 IRVINE 01 1 43693U 18088D 19107.91379263 .00002739 00000-0 12071-3 0 9993 2 43693 085.0387 358.9121 0020853 063.1290 297.2080 15.21116436023975 QO-100 1 43700U 18090A 19108.72863420 .00000122 00000-0 00000 0 0 9997 2 43700 0.0141 247.9009 0002020 170.6929 76.0576 1.00258228 1685 Reaktor Hello World 1 43743U 18096AA 19108.80977539 .00001340 00000-0 54069-4 0 9998 2 43743 97.4643 178.8649 0018109 185.1559 285.2347 15.26454121 21445 MinXSS-2 1 43758U 18099A 19108.72798852 .00000270 00000-0 29674-4 0 9992 2 43758 97.7486 181.4899 0016177 166.1071 194.0598 14.95354631 20328 AO-95 1 43770U 18099N 19107.91472809 -.00000074 00000-0 -14749-5 0 9999 2 43770 097.7491 180.5610 0014845 174.2836 185.8556 14.94720410020196 RANGE-B 1 43772U 18099Q 19107.90786727 .00000105 00000-0 14913-4 0 9992 2 43772 097.7544 180.6550 0014796 161.7641 198.4113 14.94815150020185 RANGE-A 1 43773U 18099R 19107.77534947 -.00000167 00000-0 -10021-4 0 9999 2 43773 097.7440 180.3513 0014080 161.9819 198.1904 14.94769759020168 MOVE-II 1 43780U 18099Y 19107.89325990 .00000680 00000-0 67375-4 0 9998 2 43780 097.7481 180.5598 0013986 171.6855 188.4600 14.94987031020179 SNUSat 2 1 43782U 18099AA 19108.75841113 .00000491 00000-0 50119-4 0 9994 2 43782 97.7487 181.4485 0013472 158.1711 202.0086 14.95012507 20318 SnugLite 1 43784U 18099AC 19107.81466696 .00000733 00000-0 72032-4 0 9998 2 43784 097.7454 180.4695 0015582 170.0325 190.1208 14.95086377020188 ITASat 1 1 43786U 18099AE 19108.75009645 .00000672 00000-0 66432-4 0 9990 2 43786 97.7505 181.4926 0015760 166.0001 194.1659 14.95099336 20328 EAGLET 1 1 43790U 18099AJ 19107.84552053 -.00000198 00000-0 -12663-4 0 9992 2 43790 097.7497 180.6617 0013665 173.7487 186.3907 14.95474080019887 ESEO 1 43792U 18099AL 19107.77628293 -.00000331 00000-0 -24652-4 0 9996 2 43792 097.7477 180.5695 0013464 170.8106 189.3364 14.95486415019936 CSIM 1 43793U 18099AM 19107.76946731 .00000259 00000-0 28459-4 0 9992 2 43793 097.7438 180.4846 0013607 168.3254 191.8285 14.95618771019905 Astrocast 0.1 1 43798U 18099AS 19107.82410678 .00000488 00000-0 48959-4 0 9991 2 43798 097.7486 180.6655 0013243 153.6763 206.5133 14.95710194020170 JO-97 1 43803U 18099AX 19107.93693097 .00000564 00000-0 56457-4 0 9995 2 43803 097.7462 180.6338 0015663 169.7085 190.4459 14.95218272020196 Suomi 100 1 43804U 18099AY 19108.73955165 .00000620 00000-0 61559-4 0 9994 2 43804 97.7461 181.4261 0015799 167.1927 192.9698 14.95221105 20323 Al Farabi 2 1 43805U 18099AZ 19108.73697476 .00000634 00000-0 62697-4 0 9992 2 43805 97.7462 181.4306 0015870 167.4526 192.7093 14.95264155 20322 PWSat 2 1 43814U 18099BJ 19107.93367039 .00009140 00000-0 78207-3 0 9996 2 43814 097.7723 181.0021 0015080 159.6986 200.4867 14.97736891019606 CHOMPTT 1 43855U 18104G 19107.97392646 .00000992 00000-0 41175-4 0 9995 2 43855 085.0336 097.2388 0017600 174.8083 185.3340 15.22259198018630 ISAT 1 43879U 18111D 19107.92117885 -.00000165 00000-0 -95445-5 0 9998 2 43879 097.7220 016.8108 0011957 227.1583 132.8634 14.95940241016705 UWE-4 1 43880U 18111E 19108.70546687 .00000510 00000-0 50361-4 0 9992 2 43880 97.7231 17.6400 0011000 224.0906 135.9439 14.96186680 14836 Sparrow 1 43881U 18111F 19108.76901879 .00000650 00000-0 62727-4 0 9991 2 43881 97.7235 17.7157 0011161 222.3855 137.6505 14.96232274 14837 Lume 1 1 43908U 18111AJ 19108.68231368 .00000968 00000-0 42404-4 0 9993 2 43908 97.2943 15.5862 0020933 202.6679 157.3636 15.24199444 17154 FO-98 1 43933U 19003B 19108.72672986 .00000762 00000-0 36745-4 0 9995 2 43933 97.2881 168.2374 0016178 302.3230 177.2493 15.21535764 13787 FO-99 1 43937U 19003F 19108.74919262 .00001379 00000-0 60489-4 0 9999 2 43937 97.2835 168.4434 0022789 289.0104 189.0269 15.23411242 13806 Delphini 1 1 44030U 98067PW 19107.75599761 .00009632 00000-0 14603-3 0 9995 2 44030 051.6381 300.6684 0004275 270.3543 089.6959 15.55339268011900 MYSat 1 1 44045U 18092F 19108.70927001 .00002494 00000-0 84294-4 0 9992 2 44045 51.6421 306.1538 0012511 218.7925 141.2148 15.34632434 9878 AstroCast 0.2 1 44083U 19018F 19108.70303054 .00000547 00000-0 27571-4 0 9991 2 44083 97.4748 169.1494 0012988 216.4570 143.5782 15.21304879 2649 AISTechSat 3 1 44103U 19018AB 19108.75506082 .00000879 00000-0 40950-4 0 9999 2 44103 97.4628 169.1881 0012287 236.8040 123.2019 15.22506194 2642 AISat 1 1 44104U 19018AC 19108.73120956 .00000700 00000-0 25510-4 0 9998 2 44104 97.5158 169.4419 0057645 283.0690 76.4120 15.30348507 2681 /EX
